Regional Weather Roundup
Issued by NWS Northern Indiana

Home | Current Version | Previous Version | Text Only | Print | Product List | Glossary On
Versions: 1 2 3 4 5 6 7 8 9 10 11 12 13 14 15 16 17 18 19 20 21 22 23 24 25 26 27 28 29 30 31 32 33 34 35 36 37 38 39 40 41 42 43 44 45 46 47 48 49 50
000
ASUS43 KIWX 020800
RWRIWX

KIWX WEATHER ROUNDUP
NATIONAL WEATHER SERVICE NORTHERN INDIANA
300 AM EST MON MAR 02 2015

NOTE: "FAIR" INDICATES FEW OR NO CLOUDS BELOW 12,000 FEET WITH NO
SIGNIFICANT WEATHER AND/OR OBSTRUCTIONS TO VISIBILITY.

* THESE STATIONS ARE NOT UNDER NWS QUALITY CONTROL. THEY ALSO MAY NOT
  REPORT WEATHER SUCH AS PRECIPITATION OR FOG.

INZ001>027-020900-
NORTHERN INDIANA

CITY           SKY/WX    TMP DP  RH WIND       PRES   REMARKS
SOUTH BEND     PTCLDY    18  10  71 NW10      30.36R WCI   6
GOSHEN         MOCLDY    14  10  84 W10       30.34R WCI   1
ANGOLA*        CLOUDY    18  14  86 W9        30.30R WCI   6
FORT WAYNE     MOCLDY    15  12  88 W12       30.37R WCI   2
PERU/GRISSOM   PTCLDY    12   9  87 W9        30.39R WCI  -1

$$
INZ028>050-020900-
CENTRAL INDIANA

CITY           SKY/WX    TMP DP  RH WIND       PRES   REMARKS
LAFAYETTE      PTCLDY    15  10  80 W6        30.44R WCI   6
KOKOMO*        PTCLDY    16   9  73 W13       30.40R WCI   2
MUNCIE*        PTCLDY    17  13  84 W12       30.38R WCI   4
INDIANAPOLIS   CLOUDY    21  16  81 W12       30.42R WCI   9

$$
MIZ043>046-050>051-056>058-064>065-071>073-077>080-020900-
SOUTHWEST LOWER MICHIGAN

CITY           SKY/WX    TMP DP  RH WIND       PRES   REMARKS
BATTLE CREEK   LGT SNOW  24  17  74 W12       30.28R WCI  13
BENTON HARBOR  PTCLDY    22  13  68 NW10G18   30.36R WCI  11
COLDWATER*     FLURRIES  20  15  82 W12       30.28S WCI   8
HILLSDALE*     FLURRIES  21  17  83 W14       30.25S WCI   8
HOLLAND        MOCLDY    24  12  60 NW12      30.31R WCI  13
GRAND RAPIDS   PTCLDY    23  10  57 W12       30.28R WCI  12
KALAMAZOO      CLOUDY    24  15  68 NW14      30.29R WCI  12
STURGIS*       FLURRIES  18  16  93 W7        30.30S WCI   8
THREE RIVERS*  FLURRIES  21  16  80 W10       30.32R WCI  10

$$
OHZ001>008-015>018-024>025-020900-
NORTHWEST OHIO

CITY           SKY/WX    TMP DP  RH WIND       PRES   REMARKS
DEFIANCE       CLOUDY    22  15  75 W6        30.33R WCI  14
FINDLAY        CLOUDY    22  16  78 W13G23    30.30R WCI  10
TOLEDO EXPRESS CLOUDY    22  16  78 W9        30.29R WCI  12
TOLEDO METCALF CLOUDY    23  16  74 W13       30.29S WCI  11
LIMA           CLOUDY    20  15  81 W17       30.32R WCI   5

$$
AND FOR LAKE MICHIGAN COASTAL AND OPEN LAKE BUOY OBSERVATIONS

STATION/POSITION TEMP    WIND        PRES    VSBY  WAVE
                 AIR SEA DIR/SP/G                  HT/PER
                 (F)     (DEG/KT/KT) (MB)    (MI)  (FT/S)
CALUMET HARBOR    19     270/  5/  9 1028.4R
MICHIGAN CITY     19     250/ 10/ 12   N/A
SAINT JOSEPH      24     280/  9/ 17 1028.4R

$$
&&


USA.gov is the U.S. government's official web portal to all federal, state and local government web resources and services.